Weather History for Denver Centennial, CO

Change the Weather History Date:

Saturday, February 16, 2013

  Actual Average Record
Temperature  
Mean Temperature 38 °F -  
Max Temperature 54 °F 44 °F 65 °F (2014)
Min Temperature 22 °F 21 °F 6 °F (2006)
Degree Days  
Heating Degree Days 27    
Month to date heating degree days 509  
Moisture  
Dew Point 11 °F    
Average Humidity 42    
Maximum Humidity 68    
Minimum Humidity 16    
Precipitation  
Precipitation 0.00 in - - ()
Month to date precipitation 0.31  
Year to date precipitation 0.44  
Sea Level Pressure  
Sea Level Pressure 30.13 in    
Wind  
Wind Speed 9 mph (West)    
Max Wind Speed 25 mph    
Max Gust Speed 33 mph    
Visibility 10 miles    
Events      
Averages and records for this station are not official NWS values.
T = Trace of Precipitation, MM = Missing Value Source: NWS Daily Summary

Daily Weather History Graph

Daily Weather History Graph

Search for Another Location

Airport:

Trip Planner

Search our weather history database for the weather conditions in past years. The results will help you decide how hot, cold, wet, or windy it might be!

Date:

Astronomy

Feb. 16, 2013 Rise Set
Actual Time 6:49 AM MST 5:37 PM MST
Civil Twilight 6:22 AM MST 6:05 PM MST
Nautical Twilight 5:51 AM MST 6:36 PM MST
Astronomical Twilight 5:19 AM MST 7:07 PM MST
Moon 10:06 AM MST (2/16) No Moon Set
Length of Visible Light 11h 42m
Length of Day
10h 47m
Waxing Crescent, 40% of the Moon is Illuminated
Feb 16
Waxing Crescent
Feb 17
First Quarter
Feb 25
Full
Mar 4
Last Quarter
Mar 11
New

Hourly Weather History & Observations

Time (MST) Temp. Windchill Dew Point Humidity Pressure Visibility Wind Dir Wind Speed Gust Speed Precip Events Conditions
12:53 AM 21.9 °F 14.5 °F 12.9 °F 68% 30.29 in 10.0 mi South 5.8 mph - N/A   Partly Cloudy
1:53 AM 24.1 °F 16.0 °F 12.0 °F 60% 30.29 in 10.0 mi SSW 6.9 mph - N/A   Clear
2:53 AM 26.1 °F 17.6 °F 10.9 °F 53% 30.26 in 10.0 mi WSW 8.1 mph - N/A   Clear
3:53 AM 28.0 °F 20.8 °F 10.9 °F 49% 30.24 in 10.0 mi WSW 6.9 mph - N/A   Clear
5:53 AM 25.0 °F 19.3 °F 12.0 °F 58% 30.27 in 10.0 mi South 4.6 mph - N/A   Partly Cloudy
6:53 AM 30.0 °F 22.4 °F 10.9 °F 45% 30.25 in 10.0 mi WSW 8.1 mph - N/A   Scattered Clouds
7:53 AM 37.0 °F 33.3 °F 12.0 °F 36% 30.23 in 10.0 mi NW 4.6 mph - N/A   Scattered Clouds
8:53 AM 39.0 °F 35.7 °F 19.9 °F 46% 30.22 in 10.0 mi ESE 4.6 mph - N/A   Partly Cloudy
9:53 AM 46.9 °F - 10.9 °F 23% 30.18 in 10.0 mi NW 9.2 mph - N/A   Scattered Clouds
10:53 AM 50.0 °F - 10.0 °F 20% 30.15 in 10.0 mi WNW 11.5 mph - N/A   Scattered Clouds
11:53 AM 52.0 °F - 9.0 °F 18% 30.13 in 10.0 mi WNW 21.9 mph 33.4 mph N/A   Scattered Clouds
12:53 PM 53.1 °F - 9.0 °F 17% 30.11 in 10.0 mi NNW 19.6 mph 29.9 mph N/A   Scattered Clouds
1:53 PM 54.0 °F - 10.0 °F 17% 30.09 in 10.0 mi NNW 20.7 mph 27.6 mph N/A   Scattered Clouds
2:53 PM 54.0 °F - 10.0 °F 17% 30.06 in 10.0 mi NW 15.0 mph 21.9 mph N/A   Scattered Clouds
3:53 PM 53.1 °F - 9.0 °F 17% 30.04 in 10.0 mi NW 18.4 mph 31.1 mph N/A   Scattered Clouds
4:53 PM 51.1 °F - 7.0 °F 17% 30.06 in 10.0 mi NW 21.9 mph 28.8 mph N/A   Scattered Clouds
5:53 PM 46.9 °F - 9.0 °F 21% 30.08 in 10.0 mi NW 6.9 mph 17.3 mph N/A   Scattered Clouds
6:53 PM 42.1 °F 39.2 °F 10.0 °F 27% 30.08 in 10.0 mi West 4.6 mph - N/A   Scattered Clouds
7:53 PM 39.9 °F 37.8 °F 10.0 °F 29% 30.05 in 10.0 mi WSW 3.5 mph - N/A   Partly Cloudy
8:53 PM 34.0 °F 29.8 °F 12.0 °F 40% 30.05 in 10.0 mi SW 4.6 mph - N/A   Partly Cloudy
9:53 PM 30.0 °F 25.2 °F 12.9 °F 49% 30.02 in 10.0 mi SE 4.6 mph - N/A   Partly Cloudy
10:53 PM 34.0 °F 28.8 °F 10.0 °F 37% 29.98 in 10.0 mi SW 5.8 mph - N/A   Partly Cloudy
11:53 PM 32.0 °F 27.5 °F 9.0 °F 38% 29.97 in 10.0 mi SSW 4.6 mph - N/A   Partly Cloudy